THURAYA-2

Last updated on Tue Sep 22 2026 00:03:10 GMT+0000 (Coordinated Universal Time)

1 27825U 03026A 26262.50197032 .00000124 00000+0 00000+0 0 9995 2 27825 8.9843 31.5004 0000383 73.7419 117.8922 1.00272665 85299
UTC large
Height (km)
Speed (km/s)
/
Latitude / Longitude
Inclination (degrees)
Orbital Period (minutes)
Azimuth
Elevation
Range (km)
Doppler Factor

Next 0 passes for location: London (51.5072 / 0.1276)

No passes found over London.
THURAYA-2